Regional Weather Roundup
Issued by NWS

Home | Current Version | Previous Version | Graphics & Text | Print | Product List | Glossary Off
Versions: 1 2 3 4 5 6 7 8 9 10 11 12 13 14 15 16 17 18 19 20 21 22 23 24 25 26 27 28 29 30 31 32 33 34 35 36 37 38 39 40 41 42 43 44 45 46 47 48 49 50

907
ASUS43 KTOP 232308
RWRKS

WEATHER ROUNDUP FOR KANSAS
NATIONAL WEATHER SERVICE GOODLAND KS
600 PM CDT MON APR 23 2018

NOTE:  "FAIR" INDICATES FEW OR NO CLOUDS BELOW 12,000 FEET WITH NO
SIGNIFICANT WEATHER AND/OR OBSTRUCTIONS TO VISIBILITY.

KSZ001>006-013>018-027>032-041>047-240000-
NORTHWEST KANSAS

CITY           SKY/WX    TMP DP  RH WIND       PRES   REMARKS
GOODLAND       PTSUNNY   67  39  35 S14G24    30.03S
HILL CITY      SUNNY     70  40  33 S7        30.04F
RUSSELL        SUNNY     71  39  31 NE8       30.04F
$$

KSZ061>065-074>080-084>089-240000-
SOUTHWEST KANSAS

CITY           SKY/WX    TMP DP  RH WIND       PRES   REMARKS
DODGE CITY     SUNNY     70  39  32 MISG      30.05F
ELKHART        SUNNY     72  47  40 S13       30.03F
GARDEN CITY    SUNNY     68  41  37 SE10      30.04F
GREAT BEND     MOSUNNY   69  44  40 VRB6      30.06F
LIBERAL        SUNNY     70  41  34 SW5G17    30.05S
PRATT          SUNNY     69  40  35 CALM      30.05F
$$

KSZ066>073-081>083-090>101-240000-
SOUTHEAST KANSAS

CITY           SKY/WX    TMP DP  RH WIND       PRES   REMARKS
CHANUTE        SUNNY     75  41  29 N8        30.00F
COFFEYVILLE    SUNNY     73  49  42 N15       29.99S
HUTCHINSON     SUNNY     73  41  31 NE8       30.03F
MEDICINE LODGE   N/A     72  44  36 NE7       30.03F
NEWTON         SUNNY     70  42  36 VRB7      30.04F
PARSONS        MOSUNNY   74  46  36 N12       30.00F
WICHITA INTL   MOSUNNY   73  43  33 NE7       30.02F
WICHITA JABRA  SUNNY     72  41  32 NE5       30.03S
WICHITA MCCONL SUNNY     72  40  31 N5        30.02F
WINFIELD       MOSUNNY   72  47  40 NW5       30.03S
$$

KSZ007>012-019>026-033>040-048>060-102>105-240000-
NORTHEAST KANSAS

CITY           SKY/WX    TMP DP  RH WIND       PRES   REMARKS
CONCORDIA      SUNNY     73  32  22 NE6       30.04F
EMPORIA        SUNNY     73  38  27 E7        30.01F
LAWRENCE       SUNNY     76  31  19 N7        30.01S
MANHATTAN      SUNNY     74  35  24 NE6       30.02F
MARYSVILLE     SUNNY     72  32  23 CALM      30.04F
OLATHE IND     SUNNY     75  33  21 NE8       30.01F
OLATHE EXE     SUNNY     73  33  23 E9        30.00F
SALINA         SUNNY     74  38  27 SE6       30.04F
TOPEKA BILLARD SUNNY     76  33  21 VRB6      30.01S
TOPEKA FORBES  SUNNY     76  31  19 NE6       30.01F
$$




USA.gov is the U.S. government's official web portal to all federal, state and local government web resources and services.